OpenBCM V1.08-5-g2f4a (Linux)

Packet Radio Mailbox

IZ3LSV

[San Dona' di P. JN]

 Login: GUEST





  
CX2SA  > KEPS     16.08.13 03:47l 94 Lines 2400 Bytes #999 (0) @ WW
BID : ORB13227.O
Read: GUEST
Subj: Orbital Elements  13227.OSCAR
Path: IZ3LSV<IQ5KG<IK1NHL<CX2SA
Sent: 130816/0239Z @:CX2SA.SAL.URY.SA #:9871 [Salto] FBB7.00e $:ORB13227.O
From: CX2SA@CX2SA.SAL.URY.SA
To  : KEPS@AMSAT


HR AMSAT ORBITAL ELEMENTS FOR OSCAR SATELLITES
FROM WA5QGD FORT WORTH,TX August 15, 2013
BID: ORB13227.O
TO ALL RADIO AMATEURS BT

Satellite: AO-07
Catalog number: 07530
Epoch time:      13226.77169591
Element set:     752
Inclination:      101.4363 deg
RA of node:       214.1612 deg
Eccentricity:    0.0011984
Arg of perigee:   171.2684 deg
Mean anomaly:     279.4798 deg
Mean motion:   12.53597602 rev/day
Decay rate:       -2.3e-07 rev/day^2
Epoch rev:           77312
Checksum:              305

Satellite: FO-29
Catalog number: 24278
Epoch time:      13227.22621633
Element set:     179
Inclination:      098.5501 deg
RA of node:       277.8774 deg
Eccentricity:    0.0350515
Arg of perigee:   011.3484 deg
Mean anomaly:     060.9834 deg
Mean motion:   13.53003813 rev/day
Decay rate:        2.8e-07 rev/day^2
Epoch rev:           83929
Checksum:              310

Satellite: SO-33
Catalog number: 25509
Epoch time:      13227.09040875
Element set:     561
Inclination:      031.4331 deg
RA of node:       094.1060 deg
Eccentricity:    0.0351138
Arg of perigee:   313.5802 deg
Mean anomaly:     210.4577 deg
Mean motion:   14.29106973 rev/day
Decay rate:       1.78e-06 rev/day^2
Epoch rev:           77332
Checksum:              281

Satellite: RS-22
Catalog number: 27939
Epoch time:      13227.41857483
Element set:     677
Inclination:      097.8001 deg
RA of node:       052.1783 deg
Eccentricity:    0.0013541
Arg of perigee:   004.3889 deg
Mean anomaly:     355.7457 deg
Mean motion:   14.64535508 rev/day
Decay rate:       4.85e-06 rev/day^2
Epoch rev:           52796
Checksum:              339

Satellite: VO-52
Catalog number: 28650
Epoch time:      13227.11804828
Element set:     499
Inclination:      097.5676 deg
RA of node:       242.6985 deg
Eccentricity:    0.0027434
Arg of perigee:   087.9871 deg
Mean anomaly:     312.9127 deg
Mean motion:   14.84044522 rev/day
Decay rate:      1.036e-05 rev/day^2
Epoch rev:           44782
Checksum:              336

Satellite: HO-68
Catalog number: 36122
Epoch time:      13227.25929620
Element set:     816
Inclination:      100.3013 deg
RA of node:       282.8059 deg
Eccentricity:    0.0007356
Arg of perigee:   216.4569 deg
Mean anomaly:     143.6057 deg
Mean motion:   13.16306237 rev/day
Decay rate:       -4.4e-07 rev/day^2
Epoch rev:           17618
Checksum:              290



Read previous mail | Read next mail


 18.12.2025 06:24:02lGo back Go up